{"data":{"norad_id":61752,"intl_designator":"2024-199T","name":"SITRO-AIS 14","alt_names":[],"object_type":"PAYLOAD","status":"ACTIVE","operator":null,"country":"CIS","launch_date":"2024-11-04","launch_site_code":"VOSTO","launch_vehicle":null,"mission":null,"orbit_class":"UNKNOWN","rcs_meters":null,"size_class":null,"mass_kg":null,"dimensions":null,"purposes":[],"wikipedia_slug":null,"has_3d_model":false,"image_url":null,"decayed_at":null,"tle_current":{"epoch":"2026-05-25T03:16:46.693920Z","epoch_age_seconds":66465,"freshness":"FRESH","line1":"1 61752U 24199T   26145.13665155  .00001835  00000+0  16183-3 0  9994","line2":"2 61752  97.3252 345.9812 0007070 135.0189 225.1608 14.97533430131675","mean_motion":14.9753343,"eccentricity":0.000707,"inclination_deg":97.3252,"raan_deg":345.9812,"arg_perigee_deg":135.0189,"mean_anomaly_deg":225.1608,"bstar":0.00016183,"rev_number":13167,"period_min":96.158120490172,"perigee_km":569.60478109107,"apogee_km":579.43583852714,"semimajor_km":6952.6573098091,"source":"CELESTRAK","updated_at":"2026-05-25T13:38:02.553012Z"}}}